Temp
38 39 39 40 40 40 40 41 39 35 37 42 44 46 47 48 49 50 50 51 49 49 50 51 53 54 55 56 56 56 60 62 63 63 64 64 65 65
36 38 38 39 40 39 39 41 41 39 37 41 43 45 47 51 49 50 50 51 48 47 48 49 50 51 53 53 54 55 56 59 60 61 62 62 63 64
35 35 37 39 39 40 40 39 39 41 39 41 42 45 45 47 51 50 50 51 52 47 46 47 48 48 49 50 51 52 51 57 58 59 60 61 62 63
33 34 36 39 39 40 40 39 40 40 40 40 41 44 46 48 49 48 51 54 52 48 47 46 46 46 46 47 48 48 49 53 54 55 56 58 59 61
32 32 34 37 38 39 40 38 39 41 41 41 41 43 45 48 49 49 50 51 53 51 47 46 46 46 44 43 46 47 48 50 51 51 51 52 54 56
33 33 34 37 40 40 39 40 39 39 40 40 41 42 44 48 50 50 49 49 51 54 49 46 46 45 45 43 44 46 48 50 50 49 49 48 48 50
33 33 35 38 42 41 41 40 39 38 39 40 41 42 44 45 48 48 49 49 51 53 51 49 48 48 48 44 47 46 47 49 49 49 48 46 45 46
32 33 36 40 42 41 41 40 41 39 38 39 40 41 43 45 46 47 49 49 48 52 52 49 50 48 50 51 47 46 47 47 47 47 47 46 45 45
32 33 35 38 40 40 39 39 39 40 39 42 41 44 44 45 46 46 47 49 48 49 49 44 44 44 46 51 45 45 47 47 46 46 45 44 44 43
33 33 33 36 40 40 40 39 40 39 39 43 45 45 47 47 46 46 46 48 48 47 49 42 41 39 42 44 44 46 46 45 45 44 44 43 42 42
33 34 34 35 38 41 41 38 37 38 40 40 41 42 41 41 43 48 46 47 47 44 45 44 40 39 38 38 43 45 44 43 43 43 42 41 40 40
33 34 35 36 36 39 40 38 36 37 40 42 44 45 45 46 39 47 48 47 47 44 45 43 40 42 37 38 39 42 42 40 41 42 41 41 42 42
32 32 34 36 37 38 38 39 38 39 37 41 43 44 45 45 46 46 48 49 47 44 45 44 41 39 37 35 36 37 41 41 41 41 41 41 42 42
32 33 35 36 37 37 37 36 36 36 39 38 39 37 38 39 41 43 44 44 46 49 48 47 46 43 40 36 36 37 37 39 41 39 39 39 38 38
32 34 35 36 36 35 35 36 34 36 35 35 34 35 35 37 42 41 42 42 40 39 44 48 48 44 44 40 35 35 37 34 38 38 38 38 36 38
33 35 34 34 34 33 34 34 35 35 35 35 35 36 36 36 36 40 38 40 38 35 37 38 44 46 41 42 42 36 36 35 35 35 35 35 36 36
35 34 34 35 35 35 35 36 36 37 35 37 36 37 35 36 35 37 36 37 36 34 33 35 37 37 36 38 36 36 34 34 35 35 35 32 32 33
35 33 33 34 34 35 35 36 37 36 37 37 36 36 35 35 35 35 37 36 37 35 35 35 39 40 37 36 36 33 33 33 33 34 34 32 30 31
33 32 33 33 33 35 34 36 37 36 39 38 36 36 35 35 35 35 35 35 35 35 36 36 38 42 38 33 33 34 33 33 33 33 33 33 31 30
32 32 33 33 32 34 37 36 37 36 35 36 37 36 36 35 35 35 35 36 36 34 36 36 37 39 42 36 33 32 35 34 34 32 29 29 30 31
32 33 33 33 34 36 37 37 35 35 35 35 35 35 35 37 35 35 35 35 36 37 37 35 33 35 36 37 33 31 31 35 35 34 31 31 29 29
34 34 35 36 35 35 34 34 35 35 35 35 34 34 35 37 36 36 36 37 35 36 33 33 35 37 36 36 33 30 29 30 32 32 32 32 34 31
33 35 35 37 37 37 37 35 35 34 35 34 35 34 33 35 36 36 36 36 36 35 35 35 35 35 34 34 33 31 29 30 31 31 31 31 32 32
MSLP
1018.78 1018.76 1019.05 1019.29 1019.64 1019.71 1019.89 1020.56 1021.35 1022.18 1022.21 1021.77 1021.63 1021.21 1021.15 1021.25 1021.22 1021.50 1021.74 1021.82 1021.93 1022.07 1022.25 1022.51 1022.78 1023.12 1023.43 1023.49 1023.71 1023.56 1022.57 1024.08 1024.57 1024.84 1025.19 1025.74 1026.11 1026.47
1018.64 1018.74 1018.82 1018.82 1019.16 1019.50 1019.70 1019.94 1020.43 1021.18 1021.77 1021.50 1021.48 1021.24 1020.95 1020.74 1020.88 1021.25 1021.47 1021.56 1021.68 1021.83 1021.99 1022.30 1022.62 1022.96 1023.28 1023.48 1023.44 1023.72 1023.45 1023.72 1024.50 1024.93 1025.34 1025.62 1026.13 1026.41
1018.39 1018.45 1018.46 1018.47 1018.63 1019.09 1019.51 1019.74 1020.22 1020.58 1021.17 1021.48 1021.42 1021.13 1020.93 1020.62 1020.62 1021.00 1021.20 1021.43 1021.54 1021.68 1021.87 1022.17 1022.45 1022.74 1023.01 1023.45 1023.45 1023.38 1023.46 1023.92 1024.55 1024.84 1025.16 1025.76 1026.14 1026.41
1018.05 1018.13 1018.06 1018.13 1018.22 1018.41 1019.18 1019.46 1019.77 1020.10 1020.60 1021.13 1021.21 1021.07 1020.82 1020.52 1020.61 1020.93 1020.96 1021.14 1021.35 1021.50 1021.69 1021.98 1022.24 1022.52 1022.74 1023.24 1023.66 1023.54 1023.60 1023.85 1024.29 1024.66 1025.41 1025.75 1026.09 1026.55
1017.45 1017.76 1017.59 1017.63 1017.69 1017.86 1018.82 1019.26 1019.43 1019.81 1020.12 1020.60 1021.08 1021.03 1020.80 1020.51 1020.67 1020.82 1020.94 1021.10 1021.16 1021.28 1021.52 1021.75 1021.97 1022.28 1022.68 1023.01 1023.33 1023.52 1023.60 1023.48 1024.20 1024.90 1025.33 1025.86 1026.32 1026.46
1016.62 1017.03 1017.19 1017.00 1016.92 1017.27 1018.21 1018.89 1019.07 1019.69 1020.04 1020.36 1020.79 1020.85 1020.82 1020.48 1020.45 1020.62 1020.84 1020.94 1021.02 1021.07 1021.45 1021.65 1021.83 1022.06 1022.54 1022.95 1023.11 1023.35 1023.35 1023.72 1024.17 1024.74 1025.39 1026.01 1026.25 1026.52
1016.12 1016.51 1016.45 1016.42 1016.43 1016.80 1017.60 1018.33 1018.73 1019.39 1019.86 1020.28 1020.60 1020.71 1020.69 1020.52 1020.23 1020.46 1020.59 1020.70 1020.70 1020.60 1021.20 1021.56 1021.81 1021.93 1022.10 1022.75 1022.85 1022.84 1023.06 1023.51 1024.17 1024.76 1025.25 1025.97 1026.35 1026.80
1015.65 1015.77 1015.60 1015.52 1015.78 1016.45 1017.33 1017.71 1018.06 1018.88 1019.62 1020.10 1020.38 1020.44 1020.53 1020.50 1020.13 1020.47 1020.54 1020.51 1020.60 1020.52 1020.80 1021.45 1021.58 1021.68 1021.66 1021.93 1022.24 1022.63 1022.94 1023.31 1024.14 1024.81 1025.48 1025.85 1026.68 1027.11
1015.27 1015.38 1015.14 1015.20 1015.47 1016.40 1017.21 1017.42 1018.00 1018.36 1018.81 1019.45 1019.93 1020.08 1020.37 1020.37 1020.35 1020.66 1020.68 1020.51 1020.54 1020.68 1020.80 1021.69 1021.94 1021.92 1021.83 1021.53 1021.86 1022.28 1022.75 1023.31 1023.97 1024.86 1025.46 1026.18 1026.99 1027.30
1015.24 1015.42 1015.25 1015.22 1015.57 1016.31 1017.00 1017.94 1018.40 1018.83 1019.12 1019.33 1019.62 1019.93 1020.31 1020.21 1020.27 1020.78 1021.00 1020.88 1020.93 1021.15 1020.96 1021.84 1022.42 1022.57 1022.52 1022.02 1021.90 1022.22 1022.73 1023.32 1024.27 1025.23 1025.59 1026.46 1027.01 1027.62
1015.30 1015.54 1015.49 1015.50 1015.62 1016.32 1017.05 1018.23 1018.81 1019.25 1019.41 1019.49 1019.55 1020.01 1020.24 1020.11 1020.15 1020.42 1020.73 1020.72 1020.95 1021.34 1021.43 1021.74 1022.68 1022.87 1023.10 1023.41 1023.11 1022.86 1022.90 1023.80 1024.56 1025.24 1025.99 1026.69 1027.47 1028.02
1015.42 1015.76 1016.00 1015.95 1016.18 1016.44 1017.41 1018.12 1018.88 1019.50 1019.61 1019.74 1019.75 1019.85 1019.71 1019.52 1019.98 1020.07 1020.26 1020.31 1020.72 1021.18 1021.39 1021.73 1022.37 1022.60 1023.49 1024.19 1024.09 1023.82 1023.98 1024.57 1024.93 1025.52 1026.19 1026.86 1027.29 1028.24
1015.83 1016.07 1016.33 1016.55 1016.87 1017.00 1017.52 1018.13 1018.72 1019.31 1019.66 1019.77 1019.87 1019.88 1019.85 1019.78 1019.82 1020.01 1020.09 1020.12 1020.25 1020.53 1020.68 1021.02 1022.14 1022.57 1023.58 1024.73 1025.21 1025.05 1024.96 1025.55 1026.05 1026.84 1027.07 1027.19 1027.28 1027.95
1016.34 1016.54 1016.69 1017.01 1017.30 1017.66 1018.17 1018.64 1019.10 1019.48 1019.86 1020.14 1020.16 1020.39 1020.42 1020.31 1020.23 1020.15 1020.02 1020.02 1020.05 1019.98 1020.32 1020.57 1021.06 1021.68 1023.04 1024.69 1025.54 1026.04 1026.20 1026.44 1026.65 1027.13 1027.84 1028.12 1028.34 1028.99
1016.73 1016.97 1017.14 1017.50 1017.94 1018.34 1018.73 1019.09 1019.39 1019.80 1020.25 1020.33 1020.56 1020.67 1020.62 1020.49 1020.26 1020.29 1020.34 1020.47 1020.61 1020.73 1020.72 1020.54 1020.53 1021.29 1022.22 1023.54 1025.13 1026.21 1026.87 1027.74 1027.51 1027.76 1028.11 1028.46 1029.03 1029.65
1016.98 1017.43 1017.59 1018.00 1018.51 1018.86 1019.21 1019.52 1019.71 1020.01 1020.23 1020.34 1020.54 1020.64 1020.59 1020.55 1020.63 1020.49 1020.52 1020.70 1021.09 1021.64 1021.56 1021.30 1021.21 1021.39 1022.71 1023.56 1024.34 1026.16 1026.87 1027.62 1028.38 1028.49 1028.56 1029.36 1029.81 1030.19
1017.44 1017.85 1018.08 1018.53 1019.07 1019.46 1019.78 1019.98 1020.05 1020.20 1020.39 1020.36 1020.19 1020.58 1020.81 1020.75 1020.90 1020.71 1020.75 1020.89 1021.19 1021.75 1022.42 1022.60 1022.48 1022.72 1023.43 1024.07 1025.32 1026.15 1027.01 1027.65 1028.17 1028.56 1029.06 1030.14 1030.94 1031.16
1017.96 1018.09 1018.48 1018.88 1019.29 1019.70 1019.95 1020.05 1020.07 1020.32 1020.38 1020.14 1020.42 1020.65 1020.84 1020.88 1021.01 1020.87 1020.90 1021.09 1021.31 1021.90 1022.13 1022.40 1022.40 1022.90 1023.87 1025.09 1025.74 1026.44 1027.17 1027.55 1028.50 1028.75 1029.22 1030.21 1031.59 1031.95
1018.34 1018.79 1019.08 1019.42 1019.69 1019.81 1019.83 1019.98 1020.27 1020.36 1020.25 1020.37 1020.65 1020.63 1020.70 1020.73 1020.87 1021.00 1021.18 1021.35 1021.71 1021.85 1022.22 1022.35 1022.52 1022.74 1024.33 1025.90 1026.98 1027.02 1026.97 1027.76 1028.36 1029.27 1029.88 1030.34 1031.38 1032.18
1018.96 1019.20 1019.42 1019.61 1019.77 1019.83 1020.05 1020.26 1020.40 1020.44 1020.50 1020.63 1020.56 1020.38 1020.30 1020.52 1020.61 1020.79 1021.19 1021.38 1021.70 1022.06 1022.49 1022.58 1022.59 1022.65 1023.49 1024.73 1026.29 1027.80 1027.39 1027.73 1027.99 1029.13 1030.42 1031.33 1032.01 1032.51
1019.38 1019.50 1019.59 1019.68 1019.75 1019.82 1020.14 1020.41 1020.42 1020.48 1020.55 1020.44 1020.26 1020.29 1020.32 1020.37 1020.52 1020.81 1021.15 1021.45 1021.80 1022.19 1022.71 1023.09 1023.22 1023.19 1023.72 1024.35 1025.82 1027.72 1028.46 1028.23 1028.24 1028.85 1029.94 1030.78 1031.78 1032.48
1019.42 1019.47 1019.37 1019.38 1019.54 1019.71 1019.92 1020.09 1020.19 1020.17 1020.14 1020.20 1020.14 1019.94 1020.06 1020.20 1020.57 1020.76 1021.00 1021.48 1021.80 1022.07 1022.76 1023.33 1023.45 1023.54 1023.91 1024.48 1025.93 1027.25 1028.53 1029.15 1029.25 1029.49 1029.93 1030.04 1030.39 1031.09
1019.66 1019.54 1019.49 1019.38 1019.35 1019.42 1019.44 1019.43 1019.53 1019.59 1019.85 1019.83 1019.76 1019.73 1020.00 1020.24 1020.44 1020.70 1021.02 1021.35 1021.68 1022.21 1022.72 1023.40 1023.84 1024.11 1024.53 1025.25 1025.97 1027.30 1028.24 1029.11 1029.64 1029.94 1030.34 1030.52 1030.33 1030.49
Wind_Speed
4 6 6 5 4 3 5 4 5 4 4 2 2 1 2 3 5 4 4 6 7 8 7 5 3 6 3 2 3 6 8 16 16 16 15 15 14 14
4 5 5 3 6 4 4 4 4 4 3 4 2 2 2 3 4 4 5 7 6 7 7 6 3 2 3 2 3 2 6 14 12 13 14 12 12 12
7 6 8 6 6 5 4 3 4 4 4 1 1 1 2 3 2 3 3 4 3 5 7 7 6 6 6 3 4 6 6 16 15 14 13 13 12 12
8 9 10 7 8 8 5 7 6 4 4 4 2 1 2 2 1 2 3 4 3 5 7 7 8 7 6 5 7 6 5 14 15 14 13 11 12 11
9 10 9 10 10 7 6 6 5 4 3 3 2 1 1 1 1 2 2 2 2 4 6 7 9 9 8 7 6 7 9 15 14 14 13 11 11 10
10 8 10 12 13 11 9 10 7 6 3 3 2 1 1 2 1 2 2 1 3 3 2 1 4 8 7 8 6 7 13 15 16 16 14 13 11 10
7 10 8 13 17 13 9 8 10 6 5 3 2 1 0 1 3 1 1 3 4 2 3 2 2 4 4 8 6 9 14 16 14 14 14 12 11 12
6 6 8 18 17 16 14 15 13 9 4 4 2 2 1 2 3 1 2 2 2 2 3 2 3 4 5 5 9 12 16 15 14 12 12 13 12 15
6 3 3 7 10 11 13 14 11 12 11 6 5 3 2 1 2 1 1 1 1 1 2 1 3 1 4 2 12 13 17 18 16 14 14 15 13 15
6 2 3 6 13 12 11 9 7 5 5 3 5 5 2 2 4 2 2 1 3 2 1 3 2 4 4 6 5 16 17 16 15 14 16 15 16 16
5 4 2 3 9 19 13 10 7 4 3 6 6 7 6 5 5 2 2 3 2 1 1 3 1 2 4 6 6 6 16 16 16 17 17 19 19 20
4 5 7 4 5 17 13 10 9 4 5 3 2 1 2 4 2 5 3 2 3 2 3 3 1 2 3 3 6 5 8 11 15 20 21 22 20 10
3 3 4 12 6 11 11 8 7 6 4 4 3 2 2 3 2 3 5 3 3 2 3 4 3 2 4 3 3 6 5 6 6 9 12 13 17 17
5 3 5 14 11 9 7 10 11 6 3 3 3 1 2 2 2 2 2 3 3 2 8 4 5 3 4 3 3 3 6 6 5 7 7 14 20 17
4 6 9 12 9 7 9 10 6 4 3 2 2 0 2 1 1 1 4 6 7 7 3 1 4 6 0 5 5 3 4 4 4 6 5 5 4 5
4 8 5 8 6 6 5 4 3 3 3 2 2 2 0 2 1 1 2 1 3 4 8 8 6 4 4 6 7 5 4 5 3 4 6 7 6 5
7 5 4 7 6 5 4 3 2 3 1 2 2 2 1 1 0 0 1 1 3 3 2 5 11 12 11 4 6 6 6 4 4 5 4 5 5 4
5 5 7 7 6 5 6 3 2 2 2 3 1 0 1 2 2 1 1 1 4 3 5 3 8 7 5 10 15 7 4 4 3 6 3 4 3 3
5 5 7 6 6 6 3 3 4 2 1 2 1 3 2 2 3 2 2 2 2 2 2 1 2 8 5 3 1 12 4 5 5 4 3 3 4 3
3 4 5 4 3 4 4 2 3 1 0 3 3 2 2 2 2 3 3 3 4 2 3 2 2 2 6 8 6 1 9 4 3 5 4 4 7 10
2 3 3 3 3 4 4 4 3 2 3 2 2 3 3 2 1 3 3 4 5 2 6 1 1 6 8 5 5 3 4 9 5 4 5 5 3 3
2 1 1 3 3 3 4 4 4 4 3 3 3 2 2 3 4 4 4 6 2 3 3 4 3 3 3 3 6 7 4 4 13 17 13 6 4 6
0 1 1 2 3 3 3 3 2 2 2 3 3 2 3 2 3 4 4 4 5 6 6 5 2 3 3 4 7 7 8 5 2 3 4 11 3 4
Wind_Direction
235 202 200 195 188 196 152 153 156 179 228 252 265 296 240 221 227 217 225 235 209 203 203 226 280 92 90 337 16 359 179 166 170 164 160 169 167 166
229 220 208 184 189 188 182 160 157 149 197 198 221 263 282 236 212 208 227 234 198 207 203 201 210 195 241 271 299 352 213 160 166 164 162 159 164 163
235 224 221 203 184 184 188 161 151 145 152 204 234 268 280 223 191 200 205 222 223 205 189 189 201 221 241 212 230 267 332 164 168 160 156 163 166 165
229 230 226 206 192 166 185 188 171 169 132 170 192 278 256 237 178 169 186 205 210 201 195 191 198 210 234 227 193 232 261 173 166 156 163 157 154 161
207 232 224 216 191 168 179 192 163 153 146 135 167 244 280 280 130 117 165 173 199 194 212 214 209 204 212 253 200 207 214 172 160 155 156 151 156 148
202 213 231 220 206 176 175 197 160 149 144 123 132 146 234 282 187 152 161 186 204 177 121 171 208 219 201 229 229 207 192 167 163 161 159 161 156 141
194 221 231 226 205 173 172 183 156 146 140 129 129 133 304 262 149 170 186 192 197 161 152 165 203 239 231 230 208 205 175 162 163 160 153 152 145 133
193 214 238 207 184 165 180 173 160 147 135 133 149 147 188 250 88 133 236 186 195 192 166 118 201 221 226 188 187 175 161 151 155 148 150 138 141 134
163 195 219 200 146 161 168 152 151 151 155 148 147 144 141 224 113 77 336 344 150 33 101 86 357 70 345 159 176 164 163 159 156 154 143 140 140 137
148 148 163 119 165 159 145 132 123 125 141 134 138 124 165 167 107 114 360 13 82 48 39 110 360 28 353 16 120 159 153 140 145 150 140 138 138 137
136 143 108 109 127 150 143 135 122 105 108 129 132 149 239 199 163 125 220 181 124 347 8 113 161 133 35 20 21 138 137 135 137 132 128 123 116 105
99 134 149 137 104 136 141 142 127 151 141 121 119 154 12 49 95 210 256 177 128 202 175 107 136 150 88 30 23 35 76 80 123 132 132 132 122 109
87 91 134 136 148 102 117 130 136 142 150 144 131 65 13 55 358 217 222 204 168 182 178 98 145 104 75 102 29 22 73 86 93 99 99 124 129 131
110 93 114 130 133 103 99 123 129 114 111 115 95 64 33 54 326 326 52 102 60 235 155 202 136 138 116 91 113 40 41 44 98 104 107 89 82 79
106 135 122 133 125 100 122 125 112 106 121 108 129 200 248 158 290 76 86 103 79 41 23 270 121 122 47 114 142 127 104 24 51 113 101 94 100 123
93 124 97 120 108 110 88 87 109 135 155 157 154 162 299 53 5 309 74 72 88 47 30 28 74 113 90 100 121 121 127 138 99 83 95 76 64 53
111 90 116 128 119 109 112 139 123 134 144 186 75 49 357 36 231 287 59 57 98 133 76 60 79 77 65 89 102 121 119 110 121 124 89 92 49 49
101 97 101 112 119 122 143 147 126 151 211 88 59 300 261 220 149 94 78 63 122 145 134 122 122 103 55 49 47 112 84 117 112 96 84 93 92 44
104 94 119 136 151 160 158 136 165 197 116 80 234 234 199 207 159 132 109 91 86 109 108 154 152 131 119 105 3 35 97 130 126 91 60 68 123 132
61 105 125 137 152 135 136 149 184 220 340 242 235 228 214 152 135 136 141 145 146 94 118 18 52 75 142 159 142 89 40 127 114 112 116 82 73 94
103 127 156 167 163 144 163 186 195 211 222 215 240 200 174 142 111 126 119 124 134 120 146 88 41 104 110 117 83 83 31 49 83 114 133 111 115 140
329 6 192 149 170 184 194 205 211 209 203 210 206 213 165 158 150 148 150 151 141 117 107 117 115 104 74 90 117 122 117 82 72 81 64 58 162 182
267 228 233 233 210 211 227 229 226 222 205 198 199 199 145 142 144 135 136 124 125 123 133 122 100 54 59 99 120 134 128 125 118 118 60 23 81 107